Theta_e
315 318 320 320 320 321 328 347 349 345 345 351 355 354 354 356 357 357 353 352 351 354 354 355 356 356 348 347 346 344 342 341 335 332 331 331 331 326 323 326 322 324 320
314 315 318 322 321 321 322 329 348 346 339 341 348 350 350 351 352 354 352 350 348 347 352 352 353 351 355 356 347 353 348 349 338 329 327 325 326 326 325 326 323 323 320
312 313 316 320 324 321 322 325 337 339 343 339 335 341 342 346 349 352 351 349 351 347 350 351 352 352 352 350 350 350 346 338 334 326 324 326 325 324 324 326 325 327 320
310 312 314 318 322 324 322 325 329 338 337 336 330 330 325 344 350 351 352 351 350 349 351 349 351 351 353 353 352 351 341 335 335 328 325 323 322 323 322 319 319 321 315
308 310 313 317 320 323 323 325 328 339 334 330 324 324 328 331 347 351 352 352 352 352 354 352 353 348 338 346 349 346 341 335 329 326 323 319 317 317 317 320 318 320 321
305 308 312 315 317 322 323 323 328 332 332 331 332 328 334 349 322 325 346 356 356 355 354 355 355 337 327 323 323 327 335 338 332 324 319 317 317 317 319 316 316 319 315
304 307 310 313 315 320 324 325 324 332 331 328 329 336 344 348 317 318 324 358 357 357 355 354 350 346 333 331 314 312 311 313 321 324 315 319 315 314 316 315 319 321 319
303 305 310 312 315 318 323 325 327 331 333 338 337 333 341 348 313 312 317 359 358 355 354 352 347 339 336 330 328 322 319 322 321 320 325 322 317 317 319 322 327 328 324
302 304 307 312 313 317 322 326 329 327 335 342 343 341 344 346 310 308 327 353 353 351 348 349 342 333 308 309 322 317 315 310 307 305 307 308 308 309 317 323 319 318 316
300 303 306 309 314 316 322 325 329 329 333 335 343 346 336 348 302 307 328 348 350 346 343 334 317 327 304 304 320 318 315 314 311 315 309 306 312 312 311 329 322 316 316
300 301 304 308 313 317 321 325 327 329 331 334 337 341 345 343 326 306 310 348 344 336 330 328 325 303 302 303 310 318 312 311 309 311 312 315 320 320 321 325 329 321 317
299 301 303 308 312 317 321 325 326 328 331 333 335 336 341 345 316 302 303 312 324 335 332 330 322 300 300 301 310 301 301 307 312 310 313 314 314 317 320 323 327 322 322
299 303 306 311 315 316 319 324 326 329 327 330 333 334 332 326 327 303 301 303 308 334 334 321 301 298 299 303 300 300 302 317 316 315 314 315 317 319 322 322 322 322 320
299 305 311 314 318 321 322 325 322 323 325 325 328 330 329 327 323 319 315 316 309 318 308 306 304 306 306 307 304 305 313 313 314 314 316 317 317 316 315 316 313 311 310
299 302 304 310 313 315 310 308 316 312 307 317 326 328 326 325 321 312 313 319 320 310 308 306 305 308 305 307 308 310 310 313 313 314 316 314 313 313 313 316 311 310 307
297 299 302 305 310 312 314 315 293 294 293 292 292 304 326 306 300 299 300 299 298 299 309 306 305 306 306 306 306 308 310 309 311 314 313 311 311 312 312 314 311 310 307
295 297 301 301 303 305 308 311 312 307 295 293 292 294 298 302 297 296 295 295 296 302 309 307 306 306 307 307 307 310 309 310 313 315 311 311 312 314 311 313 310 308 307
297 295 300 301 301 303 305 305 307 308 309 311 299 293 291 294 294 294 293 296 302 303 309 307 306 309 306 306 308 311 312 313 311 310 310 312 312 313 313 310 309 308 307
298 295 299 301 301 301 302 302 302 302 303 305 306 300 293 290 291 291 295 306 305 309 307 307 307 307 307 307 309 310 312 308 309 309 310 310 311 311 311 310 308 297 301
298 294 295 299 299 298 298 298 297 296 296 298 299 299 299 298 299 298 304 305 306 306 306 307 307 307 308 308 309 310 308 306 307 306 308 309 310 311 310 309 307 305 306
297 297 290 297 296 297 297 296 295 295 294 294 295 294 289 301 300 301 303 305 305 306 306 306 307 308 307 307 306 305 305 304 304 305 309 309 310 307 308 307 305 306 306
296 296 295 294 294 293 293 292 292 294 293 293 294 293 289 297 297 297 298 300 303 304 305 305 304 304 305 304 304 303 304 302 304 304 307 306 308 308 306 304 304 305 303
296 295 294 294 293 290 290 290 289 291 291 290 292 292 293 294 295 295 295 296 298 300 303 304 303 303 305 304 304 304 303 302 303 305 306 305 305 305 304 304 303 302 301
296 295 294 294 293 291 291 290 290 287 289 289 288 289 291 292 292 293 295 295 296 297 299 300 301 302 305 304 303 304 303 303 303 305 305 304 304 302 303 302 302 301 301
298 297 296 295 294 293 293 292 291 289 287 288 288 288 290 291 291 292 293 294 295 295 296 298 300 300 300 300 300 297 290 289 303 296 305 305 303 304 301 300 301 301 300
298 297 296 296 295 295 293 292 292 291 290 289 289 289 289 290 291 291 292 292 292 292 294 294 295 295 296 295 294 288 288 288 295 291 303 303 301 301 301 300 300 299 298
Wind_Speed
16 17 13 9 9 10 11 12 13 10 14 22 21 21 21 20 20 19 18 17 18 14 15 14 16 13 10 9 8 8 8 6 6 8 8 9 8 8 9 8 9 7 8
17 17 17 10 7 8 10 14 14 12 7 8 16 18 20 21 20 20 18 15 18 17 16 16 17 12 13 10 8 8 7 7 6 11 9 10 9 9 9 7 5 8 10
19 18 18 16 10 9 8 11 11 12 11 9 3 8 15 18 21 20 19 17 18 17 17 15 13 15 14 11 8 7 5 6 8 11 10 10 9 7 8 7 4 9 8
20 18 17 17 16 10 9 9 12 14 19 15 9 1 17 13 15 15 17 16 16 16 15 14 15 14 13 12 8 6 8 10 9 10 10 10 9 9 7 8 6 7 8
19 20 17 16 15 11 9 11 10 14 12 11 11 10 19 34 16 21 19 19 17 17 17 16 15 14 15 13 10 11 13 11 11 11 11 10 9 10 7 5 7 8 10
18 20 18 16 15 15 5 8 12 9 12 17 19 18 28 18 20 20 18 16 17 17 15 15 12 10 10 16 10 13 15 13 12 11 7 10 10 9 7 7 5 9 8
18 19 19 16 15 13 12 5 9 8 16 20 16 22 22 20 24 20 17 15 15 14 13 12 11 9 13 12 14 16 10 11 11 11 13 12 10 10 8 7 7 8 7
18 18 19 16 15 13 12 6 7 6 6 17 21 18 15 12 19 20 17 15 13 12 12 12 11 10 13 16 16 11 9 10 10 7 10 10 7 9 9 8 8 7 6
15 17 17 17 14 14 11 7 4 5 6 7 17 21 22 15 17 18 17 14 11 13 11 10 14 14 17 17 17 15 11 7 9 13 12 12 9 12 10 8 10 10 8
16 16 16 18 14 11 11 7 6 4 5 3 9 12 11 11 6 18 16 12 11 9 8 12 17 16 24 17 16 15 16 13 11 11 8 9 9 6 3 8 9 9 8
15 14 16 15 14 13 10 7 7 7 5 2 3 3 4 4 11 14 15 12 11 10 9 10 9 17 22 19 14 14 15 15 13 11 9 7 8 10 8 6 7 6 7
15 14 15 13 11 8 10 5 7 4 5 3 3 4 2 4 10 7 8 11 9 12 11 10 11 19 20 16 15 18 20 18 10 10 10 9 9 9 9 6 5 8 9
16 14 12 12 10 9 8 5 4 1 4 4 2 3 4 4 5 8 10 6 10 10 9 10 20 20 16 12 20 24 21 13 12 11 11 10 9 8 9 8 9 11 11
15 12 7 5 5 5 4 2 4 7 6 6 4 3 2 4 4 4 3 4 8 7 14 13 17 17 9 9 15 15 9 10 11 10 10 10 10 9 10 9 9 9 9
12 10 9 5 5 5 4 5 4 7 4 5 7 5 2 2 2 7 6 5 6 10 13 9 10 10 8 10 10 9 7 9 9 9 10 11 11 10 10 10 9 9 10
11 10 8 7 6 5 4 2 11 6 6 8 5 6 6 8 13 12 11 16 19 17 8 11 11 9 12 12 11 10 8 10 8 10 10 10 11 11 11 10 10 9 11
11 11 8 8 7 7 6 6 4 4 5 11 16 10 8 9 12 11 15 21 19 11 8 9 11 11 10 10 13 11 12 11 10 11 11 11 11 10 12 10 10 10 10
10 15 8 7 7 7 6 6 6 6 6 7 11 10 13 3 8 12 14 13 6 0 9 11 12 12 11 10 13 12 12 11 10 12 11 11 11 11 11 11 11 11 11
9 9 8 7 7 7 7 7 6 5 5 5 5 4 8 11 9 15 18 7 9 5 7 8 9 10 11 12 7 9 12 10 11 10 11 10 10 11 11 11 10 10 11
8 11 9 8 8 8 7 7 6 6 5 4 4 3 1 2 3 6 3 5 6 5 7 8 9 10 11 9 10 9 8 9 7 6 9 9 9 9 10 11 10 11 9
8 9 9 9 9 8 8 8 7 6 6 6 5 4 4 3 5 5 4 5 6 7 8 8 9 9 8 9 7 7 10 9 8 7 9 9 9 9 8 9 10 10 9
7 7 8 9 8 9 8 8 7 7 7 7 5 7 8 5 6 6 6 5 5 6 7 9 9 9 10 11 10 8 6 9 8 7 9 7 8 9 9 10 9 9 11
7 8 7 7 7 8 8 7 7 7 8 8 8 6 6 6 7 8 8 7 7 7 6 9 10 11 11 11 11 9 4 7 7 9 8 8 8 10 10 9 9 11 11
6 7 7 7 7 7 7 8 8 10 8 7 7 8 7 9 10 11 10 9 9 9 8 8 9 12 12 11 10 9 5 3 7 8 9 9 8 9 9 10 10 12 10
7 6 6 7 8 7 7 9 9 8 7 7 7 7 8 10 11 11 11 10 10 11 12 10 11 16 16 15 15 15 10 9 6 7 6 7 10 10 9 8 9 10 12
7 8 7 7 7 7 8 8 8 9 9 8 9 9 9 10 10 10 11 12 12 13 14 11 14 19 18 13 16 15 14 11 7 9 7 8 8 8 9 11 13 10 12
Wind_Direction
310 313 315 294 304 303 293 260 231 214 245 203 186 189 193 190 184 181 181 186 188 195 192 198 196 217 235 214 207 225 219 219 227 138 151 144 140 145 150 150 150 170 158
312 310 309 301 303 306 318 324 226 207 197 305 203 191 195 195 183 183 183 190 186 195 194 204 191 198 231 245 199 212 206 202 187 157 138 149 167 162 160 151 168 183 140
313 307 306 310 307 317 314 298 289 229 218 196 196 205 212 206 191 185 173 191 187 190 195 200 200 192 203 224 218 168 160 105 114 154 154 162 156 161 155 147 185 101 122
308 301 299 303 305 304 299 295 287 233 234 217 186 231 288 264 179 182 178 184 185 189 192 197 202 200 198 198 198 181 142 161 154 156 156 151 163 164 170 151 165 157 146
307 302 297 292 297 303 298 301 290 220 209 199 184 144 267 253 196 191 180 183 187 184 191 196 198 203 185 184 187 174 157 179 165 154 157 157 165 174 169 159 174 188 175
305 298 295 293 293 292 255 290 292 227 205 207 251 192 232 209 175 174 176 178 186 189 187 193 193 150 131 147 141 165 170 176 168 159 156 167 166 175 163 177 178 185 177
301 296 293 287 283 282 288 237 289 296 203 190 250 230 188 193 162 167 172 174 181 188 186 180 187 172 140 134 113 105 90 94 136 147 159 164 161 166 166 183 194 187 207
297 295 291 289 283 288 285 275 274 307 270 187 197 227 264 199 169 167 169 176 181 179 185 176 173 145 155 146 143 130 120 109 121 123 143 145 140 160 177 198 153 162 113
297 294 289 283 270 275 282 304 313 322 295 246 208 197 198 213 173 159 167 184 182 175 189 169 148 151 136 147 148 142 133 110 66 89 99 110 140 174 178 177 174 182 174
307 300 295 291 276 266 268 285 299 245 289 306 234 220 201 179 144 155 178 186 192 168 133 139 147 152 158 162 156 156 151 146 132 117 97 107 137 126 211 205 177 186 184
301 288 279 272 264 255 267 278 300 327 316 332 308 318 213 169 155 176 183 193 190 149 152 149 157 147 159 166 155 165 153 134 130 126 130 143 153 176 181 195 189 220 182
298 280 270 260 254 249 227 232 239 270 270 161 168 198 170 196 122 169 200 213 144 166 172 162 155 153 151 150 151 128 130 132 142 146 148 160 168 171 172 167 102 44 43
313 294 248 253 222 232 248 220 210 215 284 278 56 105 110 64 91 167 180 190 178 157 168 154 141 142 138 138 135 144 152 154 159 154 163 163 167 145 131 125 105 93 88
320 329 346 355 237 249 225 322 19 345 331 312 326 15 69 99 90 90 137 130 91 94 104 122 147 147 142 137 139 148 164 156 154 162 159 153 134 136 149 155 139 133 127
331 344 355 11 23 58 73 2 71 83 310 343 334 355 125 334 125 137 152 146 131 115 110 109 126 142 127 141 156 147 176 155 167 155 156 145 141 159 159 153 159 155 148
344 351 360 359 7 24 20 335 47 22 80 79 13 15 7 82 129 145 138 120 121 134 114 132 142 153 155 158 165 161 178 161 169 160 147 149 159 169 160 168 164 166 159
354 349 354 9 7 10 9 10 348 170 65 56 34 36 29 135 147 143 131 129 147 151 133 145 154 161 166 169 151 179 174 169 167 154 155 169 168 165 163 167 169 169 157
1 352 356 8 9 1 11 10 357 353 351 346 37 23 2 117 148 127 121 117 150 319 152 159 161 163 157 182 170 173 170 167 159 153 167 171 168 159 172 171 173 165 157
12 356 347 4 10 10 17 17 14 359 359 351 348 41 27 47 84 137 155 150 168 166 154 157 158 161 163 164 199 163 162 154 156 165 167 165 167 167 171 170 160 162 152
10 15 2 20 24 29 31 30 24 17 10 353 355 9 59 46 96 154 162 145 158 145 153 156 159 155 153 157 164 162 146 144 150 152 155 155 158 176 163 160 149 150 162
9 18 8 31 36 39 38 34 32 29 19 12 8 358 311 166 146 148 130 147 151 144 143 144 146 146 134 125 139 137 151 142 136 142 152 159 168 154 153 136 140 169 151
10 23 29 27 31 34 33 31 21 32 28 21 22 42 40 67 80 78 76 81 104 117 132 134 130 129 128 125 123 127 154 131 134 145 158 154 157 141 135 141 170 142 131
22 30 32 33 41 40 43 36 28 31 43 31 29 32 54 65 78 78 74 70 75 84 111 123 123 120 117 106 114 116 142 148 143 159 153 148 151 137 154 154 142 143 159
34 38 42 44 49 51 45 44 41 35 41 38 39 42 50 67 69 71 71 71 73 74 79 94 106 112 114 120 126 117 152 110 120 157 142 156 144 141 147 136 147 157 148
35 48 52 47 49 55 54 50 54 47 38 41 45 49 58 64 70 69 69 70 69 70 67 75 89 91 85 80 89 99 106 97 148 125 138 128 128 121 128 141 131 138 144
62 53 56 54 52 52 57 58 56 56 55 53 50 47 50 54 59 65 69 68 64 61 62 57 60 68 74 72 71 67 65 53 66 95 129 137 138 145 131 125 132 140 153